Location: Boiro
(42.6475°N, 8.8834°W)
Time: 23:38:44
(UTC+01:00)

Altair - Pass Details

Date: 30 November 2021
Orbit: 1501 x 1683 km, 47.2° (Epoch: 18 January)

Event Time Altitude Azimuth Distance (km) Brightness Sun altitude
Rises 00:34:51 0° 296° (WNW) 4,645 10.3 -66.6°
Enters shadow 00:35:40 - 295° (WNW) 4,377 10.1 -66.7°
Reaches altitude 10° 00:37:56 10° 292° (WNW) 3,656 - -66.9°
Maximum altitude 00:46:46 55° 218° (SW) 1,758 - -67.6°
Drops below altitude 10° 00:55:41 10° 143° (SE) 3,689 - -68.2°
Sets 00:58:50 0° 139° (SE) 4,689 - -68.3°
